Time,TemperatureF,DewpointF,PressureIn,WindDirection,WindDirectionDegrees,WindSpeedMPH,WindSpeedGustMPH,Humidity,HourlyPrecipIn,Conditions,Clouds,dailyrainin,SolarRadiationWatts/m^2,SoftwareType,DateUTC
2013-05-13 00:00:00,48.0,48.0,-100.00,SSW,210,13.0,22.0,100,0.00,,,0.53,0.000000,,2013-05-13 07:00:00,
2013-05-13 00:32:00,48.0,48.0,-100.00,SSW,210,13.0,22.0,100,0.00,,,0.53,0.000000,,2013-05-13 07:32:00,
2013-05-13 00:42:00,48.0,48.0,-100.00,SSW,210,13.0,22.0,100,0.00,,,0.53,0.000000,,2013-05-13 07:42:00,
2013-05-13 00:52:00,48.0,48.0,-100.00,SSW,210,13.0,22.0,100,0.00,,,0.53,0.000000,,2013-05-13 07:52:00,
2013-05-13 01:00:00,48.0,48.0,-100.00,SSW,207,12.0,21.0,100,0.00,,,0.47,0.000000,,2013-05-13 08:00:00,
2013-05-13 01:21:00,48.0,48.0,-100.00,SSW,207,12.0,21.0,100,0.00,,,0.47,0.000000,,2013-05-13 08:21:00,
2013-05-13 01:32:00,48.0,48.0,-100.00,SSW,207,12.0,21.0,100,0.00,,,0.47,0.000000,,2013-05-13 08:32:00,
2013-05-13 01:42:00,48.0,48.0,-100.00,SSW,207,12.0,21.0,100,0.00,,,0.47,0.000000,,2013-05-13 08:42:00,
2013-05-13 01:52:00,48.0,48.0,-100.00,SSW,207,12.0,21.0,100,0.00,,,0.47,0.000000,,2013-05-13 08:52:00,
2013-05-13 02:00:00,48.0,48.0,-100.00,SSW,209,13.0,24.0,100,0.01,,,0.37,0.000000,,2013-05-13 09:00:00,
2013-05-13 02:33:00,48.0,48.0,-100.00,SSW,209,13.0,24.0,100,0.01,,,0.37,0.000000,,2013-05-13 09:33:00,
2013-05-13 02:42:00,48.0,48.0,-100.00,SSW,209,13.0,24.0,100,0.01,,,0.37,0.000000,,2013-05-13 09:42:00,
2013-05-13 02:52:00,48.0,48.0,-100.00,SSW,209,13.0,24.0,100,0.01,,,0.37,0.000000,,2013-05-13 09:52:00,
2013-05-13 03:00:00,46.0,46.0,-100.00,SSW,210,13.0,28.0,100,0.01,,,0.32,0.000000,,2013-05-13 10:00:00,
2013-05-13 03:22:00,46.0,46.0,-100.00,SSW,210,13.0,28.0,100,0.01,,,0.32,0.000000,,2013-05-13 10:22:00,
2013-05-13 03:33:00,46.0,46.0,-100.00,SSW,210,13.0,28.0,100,0.01,,,0.32,0.000000,,2013-05-13 10:33:00,
2013-05-13 03:42:00,46.0,46.0,-100.00,SSW,210,13.0,28.0,100,0.01,,,0.32,0.000000,,2013-05-13 10:42:00,
2013-05-13 03:52:00,46.0,46.0,-100.00,SSW,210,13.0,28.0,100,0.01,,,0.32,0.000000,,2013-05-13 10:52:00,
2013-05-13 04:00:00,46.0,46.0,-100.00,SSW,209,12.0,25.0,100,0.00,,,0.32,0.000000,,2013-05-13 11:00:00,
2013-05-13 04:22:00,46.0,46.0,-100.00,SSW,209,12.0,25.0,100,0.00,,,0.32,0.000000,,2013-05-13 11:22:00,
2013-05-13 04:32:00,46.0,46.0,-100.00,SSW,209,12.0,25.0,100,0.00,,,0.32,0.000000,,2013-05-13 11:32:00,
2013-05-13 04:42:00,46.0,46.0,-100.00,SSW,209,12.0,25.0,100,0.00,,,0.32,0.000000,,2013-05-13 11:42:00,
2013-05-13 04:52:00,46.0,46.0,-100.00,SSW,209,12.0,25.0,100,0.00,,,0.32,0.000000,,2013-05-13 11:52:00,
2013-05-13 05:00:00,46.0,46.0,-100.00,SSW,206,11.0,22.0,100,0.02,,,0.34,0.000000,,2013-05-13 12:00:00,
2013-05-13 05:32:00,46.0,46.0,-100.00,SSW,206,11.0,22.0,100,0.02,,,0.34,0.000000,,2013-05-13 12:32:00,
2013-05-13 05:42:00,46.0,46.0,-100.00,SSW,206,11.0,22.0,100,0.02,,,0.34,0.000000,,2013-05-13 12:42:00,
2013-05-13 05:52:00,46.0,46.0,-100.00,SSW,206,11.0,22.0,100,0.02,,,0.34,0.000000,,2013-05-13 12:52:00,
2013-05-13 06:00:00,47.0,47.0,-100.00,SSW,203,11.0,20.0,100,0.01,,,-99.99,0.000000,,2013-05-13 13:00:00,
2013-05-13 06:32:00,47.0,47.0,-100.00,SSW,203,11.0,20.0,100,0.01,,,-99.99,0.000000,,2013-05-13 13:32:00,
2013-05-13 06:42:00,47.0,47.0,-100.00,SSW,203,11.0,20.0,100,0.01,,,-99.99,0.000000,,2013-05-13 13:42:00,
2013-05-13 06:52:00,47.0,47.0,-100.00,SSW,203,11.0,20.0,100,0.01,,,-99.99,0.000000,,2013-05-13 13:52:00,
2013-05-13 08:00:00,47.0,47.0,-100.00,SSW,206,10.0,21.0,100,-99.99,,,0.32,58.000000,,2013-05-13 15:00:00,
2013-05-13 08:32:00,47.0,47.0,-100.00,SSW,206,10.0,21.0,100,-99.99,,,0.32,58.000000,,2013-05-13 15:32:00,
2013-05-13 08:42:00,47.0,47.0,-100.00,SSW,206,10.0,21.0,100,-99.99,,,0.32,58.000000,,2013-05-13 15:42:00,
2013-05-13 08:53:00,47.0,47.0,-100.00,SSW,206,10.0,21.0,100,-99.99,,,0.32,58.000000,,2013-05-13 15:53:00,
2013-05-13 09:00:00,48.0,48.0,-100.00,SSW,209,12.0,23.0,100,0.01,,,0.32,101.000000,,2013-05-13 16:00:00,
2013-05-13 09:22:00,48.0,48.0,-100.00,SSW,209,12.0,23.0,100,0.01,,,0.32,101.000000,,2013-05-13 16:22:00,
2013-05-13 09:33:00,48.0,48.0,-100.00,SSW,209,12.0,23.0,100,0.01,,,0.32,101.000000,,2013-05-13 16:33:00,
2013-05-13 09:43:00,48.0,48.0,-100.00,SSW,209,12.0,23.0,100,0.01,,,0.32,101.000000,,2013-05-13 16:43:00,
2013-05-13 09:52:00,48.0,48.0,-100.00,SSW,209,12.0,23.0,100,0.01,,,0.32,101.000000,,2013-05-13 16:52:00,
2013-05-13 10:00:00,46.0,46.0,-100.00,SSW,205,13.0,23.0,100,0.02,,,0.34,83.000000,,2013-05-13 17:00:00,
2013-05-13 10:32:00,46.0,46.0,-100.00,SSW,205,13.0,23.0,100,0.02,,,0.34,83.000000,,2013-05-13 17:32:00,
2013-05-13 10:42:00,46.0,46.0,-100.00,SSW,205,13.0,23.0,100,0.02,,,0.34,83.000000,,2013-05-13 17:42:00,
2013-05-13 10:54:00,46.0,46.0,-100.00,SSW,205,13.0,23.0,100,0.02,,,0.34,83.000000,,2013-05-13 17:54:00,
2013-05-13 12:00:00,47.0,47.0,-100.00,SSW,202,16.0,33.0,100,-99.99,,,0.47,116.000000,,2013-05-13 19:00:00,
2013-05-13 12:32:00,47.0,47.0,-100.00,SSW,202,16.0,33.0,100,-99.99,,,0.47,116.000000,,2013-05-13 19:32:00,
2013-05-13 12:44:00,47.0,47.0,-100.00,SSW,202,16.0,33.0,100,-99.99,,,0.47,116.000000,,2013-05-13 19:44:00,
2013-05-13 12:53:00,47.0,47.0,-100.00,SSW,202,16.0,33.0,100,-99.99,,,0.47,116.000000,,2013-05-13 19:53:00,
2013-05-13 13:00:00,47.0,47.0,-100.00,SSW,212,21.0,36.0,100,0.05,,,0.52,151.000000,,2013-05-13 20:00:00,
2013-05-13 13:23:00,47.0,47.0,-100.00,SSW,212,21.0,36.0,100,0.05,,,0.52,151.000000,,2013-05-13 20:23:00,
2013-05-13 13:34:00,47.0,47.0,-100.00,SSW,212,21.0,36.0,100,0.05,,,0.52,151.000000,,2013-05-13 20:34:00,
2013-05-13 13:44:00,47.0,47.0,-100.00,SSW,212,21.0,36.0,100,0.05,,,0.52,151.000000,,2013-05-13 20:44:00,
2013-05-13 13:53:00,47.0,47.0,-100.00,SSW,212,21.0,36.0,100,0.05,,,0.52,151.000000,,2013-05-13 20:53:00,
2013-05-13 14:00:00,45.0,45.0,-100.00,SSW,211,24.0,45.0,100,0.05,,,0.56,95.000000,,2013-05-13 21:00:00,
2013-05-13 14:23:00,45.0,45.0,-100.00,SSW,211,24.0,45.0,100,0.05,,,0.56,95.000000,,2013-05-13 21:23:00,
2013-05-13 14:33:00,45.0,45.0,-100.00,SSW,211,24.0,45.0,100,0.05,,,0.56,95.000000,,2013-05-13 21:33:00,
2013-05-13 14:43:00,45.0,45.0,-100.00,SSW,211,24.0,45.0,100,0.05,,,0.56,95.000000,,2013-05-13 21:43:00,
2013-05-13 14:53:00,45.0,45.0,-100.00,SSW,211,24.0,45.0,100,0.05,,,0.56,95.000000,,2013-05-13 21:53:00,
2013-05-13 15:00:00,43.0,43.0,-100.00,SSW,213,19.0,45.0,100,0.06,,,0.60,87.000000,,2013-05-13 22:00:00,
2013-05-13 15:32:00,43.0,43.0,-100.00,SSW,213,19.0,45.0,100,0.06,,,0.60,87.000000,,2013-05-13 22:32:00,
2013-05-13 15:43:00,43.0,43.0,-100.00,SSW,213,19.0,45.0,100,0.06,,,0.60,87.000000,,2013-05-13 22:43:00,
2013-05-13 15:52:00,43.0,43.0,-100.00,SSW,213,19.0,45.0,100,0.06,,,0.60,87.000000,,2013-05-13 22:52:00,
2013-05-13 16:00:00,43.0,43.0,-100.00,SSW,212,18.0,36.0,100,0.07,,,0.66,77.000000,,2013-05-13 23:00:00,
2013-05-13 16:23:00,43.0,43.0,-100.00,SSW,212,18.0,36.0,100,0.07,,,0.66,77.000000,,2013-05-13 23:23:00,
2013-05-13 16:34:00,43.0,43.0,-100.00,SSW,212,18.0,36.0,100,0.07,,,0.66,77.000000,,2013-05-13 23:34:00,
2013-05-13 16:42:00,43.0,43.0,-100.00,SSW,212,18.0,36.0,100,0.07,,,0.66,77.000000,,2013-05-13 23:42:00,
2013-05-13 16:54:00,43.0,43.0,-100.00,SSW,212,18.0,36.0,100,0.07,,,0.66,77.000000,,2013-05-13 23:54:00,
2013-05-13 17:00:00,43.0,43.0,-100.00,SSW,211,19.0,32.0,100,0.00,,,0.62,251.000000,,2013-05-14 00:00:00,
2013-05-13 17:22:00,43.0,43.0,-100.00,SSW,211,19.0,32.0,100,0.00,,,0.62,251.000000,,2013-05-14 00:22:00,
2013-05-13 17:32:00,43.0,43.0,-100.00,SSW,211,19.0,32.0,100,0.00,,,0.62,251.000000,,2013-05-14 00:32:00,
2013-05-13 17:42:00,43.0,43.0,-100.00,SSW,211,19.0,32.0,100,0.00,,,0.62,251.000000,,2013-05-14 00:42:00,
2013-05-13 17:51:00,43.0,43.0,-100.00,SSW,211,19.0,32.0,100,0.00,,,0.62,251.000000,,2013-05-14 00:51:00,
2013-05-13 18:00:00,41.0,41.0,-100.00,SW,218,14.0,33.0,100,0.03,,,0.52,85.000000,,2013-05-14 01:00:00,
2013-05-13 18:32:00,41.0,41.0,-100.00,SW,218,14.0,33.0,100,0.03,,,0.52,85.000000,,2013-05-14 01:32:00,
2013-05-13 18:43:00,41.0,41.0,-100.00,SW,218,14.0,33.0,100,0.03,,,0.52,85.000000,,2013-05-14 01:43:00,
2013-05-13 18:53:00,41.0,41.0,-100.00,SW,218,14.0,33.0,100,0.03,,,0.52,85.000000,,2013-05-14 01:53:00,
2013-05-13 19:00:00,41.0,41.0,-100.00,SSW,209,15.0,27.0,100,0.00,,,0.50,54.000000,,2013-05-14 02:00:00,
2013-05-13 19:22:00,41.0,41.0,-100.00,SSW,209,15.0,27.0,100,0.00,,,0.50,54.000000,,2013-05-14 02:22:00,
2013-05-13 19:32:00,41.0,41.0,-100.00,SSW,209,15.0,27.0,100,0.00,,,0.50,54.000000,,2013-05-14 02:32:00,
2013-05-13 19:42:00,41.0,41.0,-100.00,SSW,209,15.0,27.0,100,0.00,,,0.50,54.000000,,2013-05-14 02:42:00,
2013-05-13 19:52:00,41.0,41.0,-100.00,SSW,209,15.0,27.0,100,0.00,,,0.50,54.000000,,2013-05-14 02:52:00,
2013-05-13 20:00:00,40.0,40.0,-100.00,SSW,211,13.0,29.0,100,0.02,,,0.50,23.000000,,2013-05-14 03:00:00,
2013-05-13 20:21:00,40.0,40.0,-100.00,SSW,211,13.0,29.0,100,0.02,,,0.50,23.000000,,2013-05-14 03:21:00,
2013-05-13 20:33:00,40.0,40.0,-100.00,SSW,211,13.0,29.0,100,0.02,,,0.50,23.000000,,2013-05-14 03:33:00,
2013-05-13 20:42:00,40.0,40.0,-100.00,SSW,211,13.0,29.0,100,0.02,,,0.50,23.000000,,2013-05-14 03:42:00,
2013-05-13 20:53:00,40.0,40.0,-100.00,SSW,211,13.0,29.0,100,0.02,,,0.50,23.000000,,2013-05-14 03:53:00,
2013-05-13 21:00:00,40.0,40.0,-100.00,SSW,210,16.0,26.0,100,0.00,,,0.49,7.000000,,2013-05-14 04:00:00,
2013-05-13 21:32:00,40.0,40.0,-100.00,SSW,210,16.0,26.0,100,0.00,,,0.49,7.000000,,2013-05-14 04:32:00,
2013-05-13 21:43:00,40.0,40.0,-100.00,SSW,210,16.0,26.0,100,0.00,,,0.49,7.000000,,2013-05-14 04:43:00,
2013-05-13 21:53:00,40.0,40.0,-100.00,SSW,210,16.0,26.0,100,0.00,,,0.49,7.000000,,2013-05-14 04:53:00,
2013-05-13 22:00:00,40.0,40.0,-100.00,SSW,211,11.0,26.0,100,0.00,,,0.49,0.000000,,2013-05-14 05:00:00,
2013-05-13 22:22:00,40.0,40.0,-100.00,SSW,211,11.0,26.0,100,0.00,,,0.49,0.000000,,2013-05-14 05:22:00,
2013-05-13 22:32:00,40.0,40.0,-100.00,SSW,211,11.0,26.0,100,0.00,,,0.49,0.000000,,2013-05-14 05:32:00,
2013-05-13 22:42:00,40.0,40.0,-100.00,SSW,211,11.0,26.0,100,0.00,,,0.49,0.000000,,2013-05-14 05:42:00,
2013-05-13 22:52:00,40.0,40.0,-100.00,SSW,211,11.0,26.0,100,0.00,,,0.49,0.000000,,2013-05-14 05:52:00,
2013-05-13 23:00:00,41.0,41.0,-100.00,SSW,206,12.0,21.0,100,0.00,,,0.49,0.000000,,2013-05-14 06:00:00,
2013-05-13 23:32:00,41.0,41.0,-100.00,SSW,206,12.0,21.0,100,0.00,,,0.49,0.000000,,2013-05-14 06:32:00,
2013-05-13 23:42:00,41.0,41.0,-100.00,SSW,206,12.0,21.0,100,0.00,,,0.49,0.000000,,2013-05-14 06:42:00,
2013-05-13 23:52:00,41.0,41.0,-100.00,SSW,206,12.0,21.0,100,0.00,,,0.49,0.000000,,2013-05-14 06:52:00,